Location: Hamilton
(37.7830°S, 175.2830°E)
Time: 06:07:24
(UTC+13:00)

SL-16 R/B - Pass Details

Date: 24 January 2019
Orbit: 842 x 846 km, 71.0° (Epoch: 18 February)

Event Time Altitude Azimuth Distance (km) Brightness Sun altitude
Rises 22:36:56 0° 316° (NW) 3,399 5.3 -19.9°
Reaches altitude 10° 22:39:33 10° 308° (NW) 2,471 4.7 -20.2°
Maximum altitude 22:44:47 37° 241° (WSW) 1,298 3.7 -20.9°
Drops below altitude 10° 22:50:05 10° 174° (S) 2,495 5.2 -21.6°
Sets 22:52:44 0° 165° (SSE) 3,436 5.9 -21.9°
